Location: Allen Fire Department Station 4
(33.1073°N, 96.6988°W)
Time: 07:41:11
(UTC+00:00)

Cosmos 1763 Rocket - Pass Details

Date: 05 July 2022
Orbit: 732 x 780 km, 74.0° (Epoch: 17 August)

Event Time Altitude Azimuth Distance (km) Brightness Sun altitude
Exits shadow 07:21:39 40° 350° (N) 1,115 4.6 -32.8°
Drops below altitude 10° 07:25:09 10° 9° (N) 2,315 6.8 -32.7°
Sets 07:27:35 0° 13° (NNE) 3,252 7.9 -32.5°
